Theta_e
327 317 310 308 299 297 293 300 306 308 313 315 318 325 325 325 323 314 341 350 355 355 358 360 362 362 361 361 361 360 359 360 360 359 359 360 360 360 359 360 360 358 356 353 351 351 352 353 353
322 314 309 302 294 290 294 302 304 307 316 320 328 328 327 324 338 339 341 355 355 356 357 358 362 361 361 360 360 359 359 359 359 360 360 360 360 359 358 358 358 355 353 352 350 351 352 352 353
311 313 301 296 291 291 295 301 307 310 312 317 316 324 327 329 341 340 348 356 357 355 356 358 362 360 361 360 360 359 359 359 359 360 360 359 359 359 358 358 357 353 351 351 350 351 351 352 352
306 303 300 293 291 297 300 303 305 306 313 316 323 322 330 339 340 347 353 356 354 354 355 360 362 361 360 360 359 359 359 359 359 359 359 359 358 359 357 357 355 353 350 350 349 350 351 351 352
302 298 292 289 293 298 303 304 304 304 312 312 320 321 326 341 348 350 352 354 352 354 355 358 361 361 361 360 360 359 359 358 359 359 358 358 358 358 357 356 354 353 352 350 349 350 351 351 349
297 296 290 288 294 301 302 304 303 302 309 322 323 321 323 343 346 348 350 350 354 354 356 356 360 361 360 360 360 359 358 358 358 358 358 358 358 357 357 355 355 354 353 351 350 349 348 346 345
295 292 290 291 296 297 302 304 301 302 303 308 321 319 323 337 344 346 346 349 352 355 355 355 356 359 361 359 359 359 358 357 357 357 357 358 357 357 357 355 354 354 353 352 351 350 348 345 344
300 293 288 292 294 296 303 300 299 300 303 313 321 314 316 328 343 344 343 347 347 352 353 354 356 357 355 356 359 359 358 358 357 357 357 357 357 356 356 354 354 354 353 352 351 349 348 346 345
302 290 288 292 293 296 299 298 302 306 306 308 311 316 319 336 342 340 342 345 346 348 349 352 354 355 355 354 357 359 359 359 358 357 357 354 350 350 351 352 351 354 353 352 352 350 348 347 346
296 288 292 298 299 299 300 297 299 303 304 306 309 311 318 338 339 339 340 340 343 343 346 350 352 353 354 356 354 355 355 355 354 353 351 349 346 346 349 350 352 353 353 353 352 351 349 348 338
295 292 297 300 302 301 298 300 301 301 298 302 304 307 308 314 328 337 340 341 342 345 345 348 350 351 351 353 354 354 354 354 354 352 350 346 346 344 347 344 346 345 350 345 346 344 342 339 337
291 297 299 300 302 301 300 303 301 300 302 306 306 308 306 306 311 323 333 337 341 343 343 345 348 348 349 351 351 350 351 351 351 352 350 346 342 341 342 341 339 339 340 340 338 337 336 337 337
290 295 298 300 300 299 300 299 300 300 305 306 306 306 304 304 305 309 315 323 340 342 342 343 345 346 347 345 349 349 350 350 350 351 350 349 345 341 342 340 338 338 339 338 336 335 334 332 332
295 296 297 298 298 297 297 299 299 302 306 305 304 304 303 303 304 303 310 324 333 343 342 343 343 343 342 342 345 345 348 349 349 349 349 349 346 343 340 340 339 338 337 336 335 332 330 328 328
296 292 295 296 298 297 298 296 297 303 304 303 302 302 303 304 305 305 305 316 333 338 341 340 342 343 340 340 343 343 345 346 347 348 348 349 348 344 341 338 337 337 335 334 334 332 328 328 329
293 291 287 294 297 299 298 292 299 303 301 301 302 302 302 303 305 305 306 307 328 337 339 341 343 341 337 340 342 342 342 340 343 343 344 347 348 346 339 338 337 336 333 333 332 330 329 329 329
290 286 288 293 297 297 294 291 299 301 300 300 300 301 302 302 304 305 306 305 312 336 339 340 339 338 335 342 345 344 341 338 339 337 336 338 342 346 343 340 339 336 335 335 334 331 332 330 331
287 287 289 290 294 295 293 293 296 299 298 299 299 300 301 302 303 306 307 308 313 331 339 338 335 333 333 332 333 341 346 346 340 336 336 337 338 341 342 343 338 336 335 337 334 334 333 333 333
292 290 289 293 296 293 292 292 295 298 296 295 296 298 300 300 304 304 305 309 321 328 333 335 331 331 333 332 330 334 338 342 345 345 343 339 340 341 341 341 340 336 335 336 335 335 333 334 330
292 289 289 292 295 292 292 292 295 296 296 295 296 297 299 299 302 304 304 306 315 326 331 331 331 327 326 324 337 340 340 340 341 341 340 344 344 341 341 340 341 340 338 336 336 333 332 332 331
291 289 289 290 294 293 291 289 292 296 297 298 298 298 299 300 300 302 303 305 311 319 323 326 322 323 321 318 323 324 324 325 327 327 329 332 334 339 341 342 340 340 341 337 334 334 333 332 333
288 295 295 293 289 284 291 282 288 292 294 296 298 297 298 299 301 302 302 304 310 311 313 316 318 318 319 320 320 318 316 316 320 321 325 327 332 334 336 339 339 338 336 333 337 335 330 331 333
292 296 294 293 288 285 286 283 286 290 292 293 297 299 300 303 303 301 302 307 309 313 314 317 317 320 322 321 319 318 317 318 320 321 320 321 325 332 334 332 333 333 332 330 331 332 333 337 332
299 293 290 287 285 280 285 284 283 288 290 298 301 302 302 302 303 305 308 311 310 311 312 314 316 315 318 318 318 318 317 318 319 320 319 319 320 322 326 329 330 327 325 325 328 329 327 328 330
293 286 280 279 279 279 288 285 287 293 301 301 300 300 301 302 304 306 306 307 308 308 310 311 313 312 312 313 312 312 313 317 319 317 316 316 317 319 322 324 326 327 327 326 326 325 325 326 328
291 287 281 277 277 280 289 283 289 300 303 302 302 301 301 301 300 301 303 305 306 307 308 308 310 310 310 310 310 310 314 314 313 315 315 316 316 319 321 323 324 325 328 329 328 329 329 327 328
293 288 290 285 285 282 284 289 295 300 301 303 303 302 301 301 301 301 303 303 304 305 307 307 306 307 309 310 309 309 312 311 311 312 313 314 316 320 320 320 321 322 324 326 327 328 327 329 330
294 297 287 285 279 277 282 285 286 294 297 301 301 302 303 304 304 302 301 303 304 305 306 306 307 307 307 310 309 309 310 310 310 310 311 312 313 317 316 317 316 317 319 321 322 323 326 329 328
289 287 288 287 285 278 278 283 292 295 296 297 298 302 304 307 309 308 306 303 304 302 302 303 304 306 308 309 308 308 308 309 309 308 309 310 312 314 315 316 316 316 315 315 315 317 320 322 323
291 289 288 280 281 287 288 285 297 296 295 296 297 299 300 302 304 306 306 304 303 301 303 303 304 303 303 304 306 306 306 306 307 308 308 309 311 312 314 315 315 316 316 314 314 316 318 319 319
Wind_Speed
8 7 0 5 4 5 3 6 3 5 7 5 4 3 4 2 2 4 1 3 18 15 12 12 13 15 17 17 17 17 16 16 17 17 17 16 15 14 13 12 12 13 12 11 11 11 11 11 10
5 5 5 3 5 2 6 5 7 6 5 6 3 3 5 2 3 6 8 7 14 14 11 11 14 15 17 16 16 16 15 15 16 16 15 15 14 13 14 12 12 12 12 12 12 11 11 10 10
5 2 4 5 3 5 6 3 6 7 15 6 5 3 2 1 3 8 7 15 12 10 9 12 16 15 17 17 16 15 15 14 14 15 15 14 13 12 11 11 11 12 12 13 13 12 12 11 9
3 5 5 5 6 7 4 8 6 11 10 2 4 6 4 2 7 7 14 16 14 10 9 14 16 15 17 17 17 16 15 14 14 14 15 15 14 12 11 10 10 10 12 12 11 10 9 8 7
4 3 3 2 6 5 5 6 6 8 7 2 7 3 2 4 10 17 15 13 14 10 8 12 16 15 16 17 16 16 16 15 15 15 15 14 13 12 11 11 11 10 10 10 10 9 8 7 6
3 3 3 4 6 4 6 7 4 5 5 2 6 6 1 5 12 12 15 13 12 12 8 9 13 14 14 16 16 16 15 15 15 14 14 13 13 12 11 10 11 11 11 10 9 8 7 7 7
6 4 5 4 5 5 4 5 6 5 7 4 8 5 2 6 5 12 13 11 12 11 11 8 7 10 14 15 15 15 15 15 15 15 14 13 12 11 10 10 9 8 8 8 8 8 8 8 8
4 5 4 5 5 8 4 5 4 4 7 2 5 6 6 6 9 8 6 6 7 9 10 12 12 11 9 8 14 14 14 14 13 13 12 12 11 11 10 10 9 9 9 9 8 7 7 8 8
4 3 4 6 7 5 5 8 6 5 0 4 5 4 6 13 13 8 8 5 4 6 6 8 10 10 9 8 9 12 15 14 14 13 13 9 4 6 8 7 10 10 9 9 8 7 7 7 8
5 5 8 6 3 5 4 2 4 6 8 6 4 9 8 13 17 14 11 11 9 11 8 8 9 11 11 9 8 8 8 6 6 6 5 4 4 4 5 6 9 9 9 9 9 9 8 7 3
5 5 4 6 7 4 4 7 2 6 3 3 1 1 7 5 5 6 9 12 17 11 9 10 8 8 10 9 7 6 6 5 5 7 6 4 3 3 3 3 3 4 8 3 5 4 3 5 4
2 5 5 4 6 4 6 6 5 2 6 5 5 1 2 11 7 10 9 9 8 9 11 11 9 8 9 5 6 7 8 7 8 9 8 6 4 4 4 3 4 3 3 4 4 3 5 6 5
3 4 6 7 9 6 5 8 8 6 11 7 6 3 5 6 7 7 9 10 12 10 10 12 12 11 9 5 5 5 8 8 9 10 9 7 7 6 5 4 4 4 4 4 4 4 4 4 5
6 7 9 5 9 5 5 11 8 8 10 8 5 8 7 9 10 6 7 7 10 14 14 13 14 12 9 7 6 5 5 6 6 7 7 9 7 6 6 5 6 6 5 4 4 4 4 4 4
4 3 5 5 7 8 7 8 7 12 7 8 8 9 9 8 8 10 10 9 9 8 10 16 16 12 11 8 6 5 6 5 6 6 8 9 9 6 5 4 5 5 4 5 4 4 3 4 5
2 4 1 6 2 7 9 7 7 10 7 11 11 9 8 9 10 10 8 8 9 5 10 11 11 11 7 8 6 5 5 5 6 4 4 7 8 7 6 5 7 5 5 5 5 4 4 6 4
5 3 3 6 3 1 3 6 9 6 8 11 11 10 8 9 8 11 10 10 11 13 8 9 8 11 10 7 6 6 6 5 5 3 3 4 7 6 6 7 7 6 5 6 6 4 6 5 5
5 2 2 5 3 3 7 9 9 8 7 14 11 8 8 9 14 11 11 7 9 9 9 8 8 9 8 5 3 3 4 5 4 4 5 6 5 7 7 7 4 4 5 6 3 7 5 7 7
2 3 5 6 4 2 8 7 9 9 5 9 8 8 10 10 12 9 6 4 6 5 7 9 9 10 8 4 3 2 4 2 3 4 6 8 7 9 9 6 5 5 5 7 7 5 6 6 3
4 3 7 9 6 7 7 9 9 6 5 7 8 8 10 7 7 8 7 7 9 11 12 8 9 7 5 4 4 4 4 3 3 3 3 4 5 6 8 7 8 8 6 8 8 5 5 5 5
5 4 6 8 6 2 3 6 5 6 5 7 4 5 6 8 9 10 8 8 6 9 9 10 10 9 6 5 2 3 4 4 4 4 3 3 4 1 6 7 7 9 9 6 4 3 7 9 5
7 8 14 8 2 4 3 6 6 5 8 5 9 9 9 9 9 11 9 8 10 7 7 7 6 6 3 5 3 3 3 3 1 2 1 3 4 5 3 4 4 5 4 5 9 9 14 15 14
9 4 8 7 5 3 2 2 9 4 7 7 10 10 11 10 9 9 9 8 3 7 7 6 6 5 3 5 6 5 5 3 3 2 2 0 2 4 6 4 4 5 4 6 7 9 10 8 7
4 3 8 6 4 0 4 5 5 4 3 6 6 8 9 4 7 9 8 7 6 6 8 8 9 6 7 7 7 8 8 5 4 2 2 2 2 1 3 5 4 4 5 5 6 6 6 7 6
7 6 3 3 3 6 1 1 9 3 4 4 4 9 9 9 9 11 11 9 8 7 7 7 8 6 6 6 6 6 7 7 7 5 3 2 0 1 4 3 5 5 4 5 6 6 8 9 8
2 6 7 7 4 4 4 5 3 4 5 6 11 7 9 10 9 8 7 8 6 5 3 4 4 4 4 5 6 5 7 5 5 6 4 4 4 4 4 3 3 5 7 7 5 4 6 7 9
2 3 4 6 2 3 4 6 1 5 8 8 8 9 9 9 9 9 8 4 5 3 1 1 1 3 5 6 4 6 4 4 4 6 5 4 4 3 4 4 4 3 5 7 8 6 7 7 9
5 6 3 3 4 4 4 4 6 2 5 7 8 6 7 7 6 7 7 6 6 1 3 3 5 7 7 8 6 5 6 7 6 5 7 7 6 4 5 4 3 3 3 4 5 6 7 8 8
6 4 5 4 4 6 1 6 4 5 2 5 6 7 8 8 10 4 4 3 4 3 5 7 8 7 7 6 5 7 7 8 7 7 7 7 6 7 7 6 5 5 4 5 4 6 7 7 8
3 3 4 6 4 1 1 7 4 5 4 3 8 9 7 8 9 6 3 2 4 6 3 5 5 6 6 6 5 5 6 7 7 7 6 6 8 6 7 7 7 6 6 6 6 6 7 9 10
Wind_Direction
319 314 84 46 41 59 281 260 268 294 319 311 288 175 161 22 153 209 198 152 132 145 151 156 156 144 133 131 130 129 128 127 127 129 131 132 134 135 134 133 132 137 140 141 145 150 151 153 151
321 328 35 86 88 31 274 249 251 258 259 303 16 48 24 61 91 118 109 141 139 144 150 152 153 147 135 133 132 131 130 130 130 132 131 131 132 137 141 140 142 146 149 152 156 160 162 163 160
318 33 77 94 122 187 234 258 278 286 295 234 160 100 67 110 70 150 134 141 134 144 151 155 150 151 140 140 138 137 137 137 138 138 138 139 142 146 149 149 154 159 162 165 168 169 171 173 173
11 17 35 96 227 257 235 289 302 320 319 256 89 71 74 111 161 145 140 142 141 147 155 155 150 153 147 146 147 145 147 148 148 150 151 154 157 159 159 162 165 172 175 177 177 177 181 185 188
32 64 73 142 255 259 276 291 318 300 282 305 132 118 38 13 107 129 140 146 145 148 156 152 151 157 154 152 153 154 157 160 161 161 164 166 167 168 171 175 180 186 187 186 185 188 191 193 199
43 94 76 232 254 255 289 272 290 298 327 302 76 102 253 131 136 148 151 155 151 148 149 153 155 158 158 157 161 164 165 168 170 171 173 174 176 180 185 188 190 193 193 191 192 198 205 205 211
128 100 204 200 268 283 241 320 306 287 279 247 147 105 114 202 164 156 154 146 150 153 148 149 154 164 165 166 168 171 172 175 179 179 179 179 182 187 190 197 202 207 213 212 207 204 208 216 227
129 109 174 218 206 268 191 329 267 281 292 86 143 169 195 198 143 128 115 122 148 164 164 163 166 171 170 171 176 176 178 182 183 185 185 186 191 194 199 202 210 213 215 218 223 222 229 239 247
107 88 227 209 179 243 332 19 323 291 304 339 325 141 166 129 126 111 120 121 135 170 180 178 172 170 168 167 181 183 189 189 188 190 193 186 184 196 208 217 217 226 229 232 228 230 238 246 261
153 172 214 202 213 269 314 360 307 338 352 351 30 45 67 142 151 152 166 175 181 192 190 186 181 178 173 177 179 177 183 182 189 187 189 183 190 196 201 220 231 240 241 239 251 249 247 254 241
184 216 207 256 268 284 259 298 107 310 316 251 52 46 119 108 134 160 183 186 193 182 183 188 189 185 183 180 172 179 191 186 194 188 181 180 182 198 207 210 224 221 234 240 241 253 249 256 247
200 237 223 256 258 275 264 293 309 222 252 248 191 167 340 139 179 187 188 204 186 185 185 179 187 189 193 182 178 177 191 189 198 206 187 176 185 190 201 200 225 223 221 222 227 233 250 250 254
223 251 255 252 265 247 286 261 251 264 252 225 273 180 198 214 179 189 199 205 194 188 188 188 183 189 189 187 183 184 194 193 201 204 198 190 196 201 203 207 192 212 193 223 229 229 256 264 275
216 232 253 289 272 252 207 263 144 258 242 255 226 256 235 216 230 151 191 199 184 193 188 181 194 188 178 187 180 186 187 198 202 207 205 203 207 205 208 211 216 223 196 212 212 223 233 253 263
229 246 292 243 256 240 175 277 206 237 233 238 252 243 254 241 245 234 197 198 189 202 188 184 191 180 184 183 183 180 187 188 204 204 198 205 207 207 203 208 226 221 192 201 218 229 229 246 241
21 39 340 279 230 264 153 250 262 254 260 263 256 250 241 248 230 237 230 196 199 191 186 195 183 178 169 170 179 181 190 190 209 201 212 199 215 200 191 210 223 198 187 199 208 198 228 244 229
3 198 196 300 222 259 215 284 262 291 250 249 258 258 256 269 259 244 246 178 198 200 187 171 172 172 172 169 173 183 185 199 207 183 229 226 229 211 211 225 229 193 195 213 211 212 212 225 243
206 205 254 217 273 356 313 275 284 278 277 249 247 259 270 266 255 238 235 203 198 190 179 175 169 158 174 176 189 176 183 214 185 194 206 205 220 212 218 234 223 204 207 229 204 217 213 228 238
181 187 250 261 246 275 256 247 279 292 335 291 251 245 257 257 260 249 233 179 150 164 183 183 170 189 161 157 180 182 190 159 198 180 202 211 209 214 215 215 217 193 208 232 217 229 235 254 191
215 249 269 289 261 154 273 258 258 276 282 249 237 253 246 245 257 263 229 187 197 182 194 179 199 174 164 155 168 168 168 184 146 142 150 177 203 206 224 222 226 228 199 223 225 214 254 255 188
245 198 251 221 305 244 303 310 295 295 306 335 311 258 265 250 272 286 263 212 173 176 193 188 183 178 187 173 95 68 59 46 53 31 25 352 352 340 207 217 216 221 228 182 131 327 286 281 277
260 209 231 234 174 243 91 275 299 299 315 306 305 305 281 259 247 249 253 192 194 197 160 164 160 161 161 149 100 92 113 118 160 112 344 338 340 331 341 256 244 230 218 224 202 220 232 237 253
230 302 204 205 183 126 318 81 268 285 307 314 309 309 308 305 289 277 227 201 173 141 134 120 123 113 107 110 117 115 99 113 146 136 139 268 322 324 321 321 250 249 209 236 240 236 234 231 243
294 86 36 49 86 183 230 152 273 260 261 299 321 353 338 17 51 47 38 61 63 95 97 108 118 120 126 127 133 127 131 137 112 95 43 2 341 318 326 321 313 268 255 225 222 234 238 239 224
69 57 346 335 346 219 199 78 241 319 329 275 22 3 359 343 68 79 75 69 59 53 85 107 118 133 149 137 140 148 149 150 151 154 159 159 151 326 327 332 331 315 294 254 240 230 233 234 233
101 144 160 204 206 258 293 237 243 55 4 40 63 39 26 19 12 36 69 103 108 113 104 107 146 161 188 187 191 186 177 169 161 162 175 185 186 188 190 224 274 304 309 305 282 251 247 233 234
177 77 174 103 29 56 262 299 13 41 42 44 42 39 27 16 9 26 18 52 121 105 80 174 194 263 250 252 250 235 222 194 192 191 180 190 200 197 181 184 200 244 279 295 299 293 273 252 240
91 161 74 13 173 233 288 271 237 60 28 30 16 27 356 343 1 31 20 355 345 133 176 225 234 232 240 238 235 241 235 222 221 198 205 209 210 205 213 215 205 231 250 270 289 286 286 287 269
357 15 52 110 135 175 213 252 249 124 83 15 338 340 327 331 304 336 286 207 249 346 354 333 322 309 309 308 283 232 233 227 216 213 222 214 208 205 212 213 226 235 250 272 278 274 274 268 262
161 134 111 124 240 212 165 264 176 159 243 302 314 287 275 276 260 282 338 267 105 88 80 48 13 11 356 330 323 310 325 337 319 294 261 229 220 220 220 214 219 226 232 250 267 270 279 280 273